timestamp,wind_dir_avg,wind_spd_avg,wind_spd_max_dir,wind_spd_gust,battery_voltage,lat,long
2021-01-02 00:04:01+00:00,293.0,7.95,304.0,10.52,12.57,47.59359,-54.27349
2021-01-02 00:14:01+00:00,288.0,7.58,296.0,9.93,12.49,47.59359,-54.27349
2021-01-02 00:24:01+00:00,300.0,7.99,298.0,10.3,12.49,47.59359,-54.27349
2021-01-02 00:34:01+00:00,303.0,9.06,305.0,10.89,12.49,47.59359,-54.27349
2021-01-02 00:44:01+00:00,296.0,8.61,295.0,9.84,12.49,47.59359,-54.27349
2021-01-02 00:54:01+00:00,295.0,9.24,284.0,13.67,12.49,47.59359,-54.27349
2021-01-02 01:04:01+00:00,291.0,7.63,288.0,8.79,12.49,47.59359,-54.27349
2021-01-02 01:14:01+00:00,302.0,7.65,296.0,9.35,12.49,47.59359,-54.27349
2021-01-02 01:24:01+00:00,318.0,8.28,308.0,11.3,12.49,47.59359,-54.27349
2021-01-02 01:34:01+00:00,300.0,6.6,294.0,8.6,12.49,47.59359,-54.27349
2021-01-02 01:44:01+00:00,304.0,7.05,313.0,9.54,12.49,47.59359,-54.27349
2021-01-02 01:54:01+00:00,300.0,8.07,309.0,12.88,12.49,47.59359,-54.27349
2021-01-02 02:04:01+00:00,298.0,7.28,283.0,11.28,12.49,47.59359,-54.27349
2021-01-02 02:14:01+00:00,296.0,6.69,296.0,8.46,12.49,47.59359,-54.27349
2021-01-02 02:24:01+00:00,287.0,5.67,286.0,6.95,12.49,47.59359,-54.27349
2021-01-02 02:34:01+00:00,271.0,6.36,272.0,7.29,12.49,47.59359,-54.27349
2021-01-02 02:44:01+00:00,262.0,5.75,274.0,7.53,12.49,47.59359,-54.27349
2021-01-02 02:54:01+00:00,286.0,6.88,273.0,7.86,12.49,47.59359,-54.27349
2021-01-02 03:04:01+00:00,288.0,6.99,294.0,8.85,12.49,47.59359,-54.27349
2021-01-02 03:14:01+00:00,288.0,6.05,304.0,8.1,12.41,47.59359,-54.27349
2021-01-02 03:24:01+00:00,270.0,6.09,268.0,8.09,12.41,47.59359,-54.27349
2021-01-02 03:34:01+00:00,295.0,7.94,302.0,9.77,12.41,47.59359,-54.27349
2021-01-02 03:44:01+00:00,294.0,8.54,288.0,9.89,12.41,47.59359,-54.27349
2021-01-02 03:54:01+00:00,292.0,9.42,288.0,14.32,12.41,47.59359,-54.27349
2021-01-02 04:04:01+00:00,297.0,12.04,298.0,15.44,12.41,47.59359,-54.27349
2021-01-02 04:14:01+00:00,290.0,8.96,281.0,10.98,12.41,47.59359,-54.27349
2021-01-02 04:24:01+00:00,292.0,11.28,286.0,14.85,12.41,47.59359,-54.27349
2021-01-02 04:34:01+00:00,290.0,7.68,293.0,9.29,12.41,47.59359,-54.27349
2021-01-02 04:44:01+00:00,280.0,8.42,278.0,9.89,12.41,47.59359,-54.27349
2021-01-02 04:54:01+00:00,284.0,8.38,276.0,12.3,12.41,47.59359,-54.27349
2021-01-02 05:04:01+00:00,279.0,7.79,285.0,9.13,12.41,47.59359,-54.27349
2021-01-02 05:14:01+00:00,301.0,8.7,306.0,9.92,12.41,47.59359,-54.27349
2021-01-02 05:24:01+00:00,278.0,8.13,280.0,10.0,12.41,47.59359,-54.27349
2021-01-02 05:34:01+00:00,295.0,6.02,287.0,7.89,12.41,47.59359,-54.27349
2021-01-02 05:44:01+00:00,263.0,6.73,263.0,7.78,12.41,47.59359,-54.27349
2021-01-02 05:54:01+00:00,287.0,8.54,285.0,10.36,12.41,47.59359,-54.27349
2021-01-02 06:04:01+00:00,289.0,7.92,299.0,10.31,12.41,47.59359,-54.27349
2021-01-02 06:14:01+00:00,287.0,8.54,277.0,12.39,12.41,47.59359,-54.27349
2021-01-02 06:24:01+00:00,290.0,5.58,280.0,6.78,12.41,47.59359,-54.27349
2021-01-02 06:34:01+00:00,307.0,8.56,304.0,9.91,12.41,47.59359,-54.27349
2021-01-02 06:44:01+00:00,296.0,8.32,291.0,10.82,12.41,47.59359,-54.27349
2021-01-02 06:54:01+00:00,310.0,11.04,306.0,15.31,12.41,47.59359,-54.27349
2021-01-02 07:04:01+00:00,305.0,10.13,292.0,14.76,12.41,47.59359,-54.27349
2021-01-02 07:14:01+00:00,310.0,9.03,323.0,11.1,12.41,47.59359,-54.27349
2021-01-02 07:24:01+00:00,311.0,9.68,304.0,12.87,12.41,47.59359,-54.27349
2021-01-02 07:34:01+00:00,292.0,8.09,299.0,9.18,12.41,47.59359,-54.27349
2021-01-02 07:44:01+00:00,303.0,11.5,300.0,16.29,12.41,47.59359,-54.27349
2021-01-02 07:54:01+00:00,286.0,10.59,290.0,15.02,12.41,47.59359,-54.27349
2021-01-02 08:04:01+00:00,292.0,9.01,295.0,11.24,12.41,47.59359,-54.27349
2021-01-02 08:14:01+00:00,300.0,8.32,293.0,9.43,12.41,47.59359,-54.27349
2021-01-02 08:24:01+00:00,301.0,10.19,292.0,13.15,12.41,47.59359,-54.27349
2021-01-02 08:34:01+00:00,291.0,7.55,297.0,8.95,12.41,47.59359,-54.27349
2021-01-02 08:44:01+00:00,293.0,5.7,287.0,7.53,12.41,47.59359,-54.27349
2021-01-02 08:54:01+00:00,280.0,6.11,285.0,7.39,12.41,47.59359,-54.27349
2021-01-02 09:04:01+00:00,288.0,7.08,291.0,8.46,12.41,47.59359,-54.27349
2021-01-02 09:14:01+00:00,292.0,10.3,292.0,15.27,12.41,47.59359,-54.27349
2021-01-02 09:24:01+00:00,290.0,6.76,299.0,8.69,12.41,47.59359,-54.27349
2021-01-02 09:34:01+00:00,308.0,6.58,305.0,8.08,12.41,47.59359,-54.27349
2021-01-02 09:44:01+00:00,288.0,5.78,279.0,7.09,12.41,47.59359,-54.27349
2021-01-02 09:54:01+00:00,296.0,5.48,289.0,8.13,12.41,47.59359,-54.27349
2021-01-02 10:04:01+00:00,328.0,6.18,326.0,8.38,12.41,47.59359,-54.27349
2021-01-02 10:14:01+00:00,313.0,3.78,324.0,5.29,12.33,47.59359,-54.27349
2021-01-02 10:24:01+00:00,307.0,4.25,318.0,6.0,12.33,47.59359,-54.27349
2021-01-02 10:34:01+00:00,299.0,4.71,305.0,6.42,12.33,47.59359,-54.27349
2021-01-02 10:44:01+00:00,294.0,4.7,295.0,5.64,12.33,47.59359,-54.27349
2021-01-02 10:54:01+00:00,313.0,5.58,316.0,7.25,12.33,47.59359,-54.27349
2021-01-02 11:04:01+00:00,272.0,4.16,272.0,5.71,12.33,47.59359,-54.27349
2021-01-02 11:14:01+00:00,296.0,4.85,293.0,6.05,12.33,47.59359,-54.27349
2021-01-02 11:24:01+00:00,318.0,4.73,312.0,5.5,12.33,47.59359,-54.27349
2021-01-02 11:34:01+00:00,288.0,3.82,289.0,4.78,12.33,47.59359,-54.27349
2021-01-02 11:44:01+00:00,279.0,4.34,276.0,5.23,12.33,47.59359,-54.27349
2021-01-02 11:54:01+00:00,266.0,4.67,268.0,5.52,12.33,47.59359,-54.27349
2021-01-02 12:04:01+00:00,266.0,3.24,269.0,4.19,12.33,47.59359,-54.27349
2021-01-02 12:14:01+00:00,253.0,2.55,262.0,3.34,13.76,47.59359,-54.27349
2021-01-02 12:24:01+00:00,252.0,4.45,248.0,5.45,13.76,47.59359,-54.27349
2021-01-02 12:34:01+00:00,258.0,4.24,245.0,5.81,13.76,47.59359,-54.27349
2021-01-02 12:44:01+00:00,264.0,4.67,266.0,5.95,13.76,47.59359,-54.27349
2021-01-02 12:54:01+00:00,255.0,6.39,251.0,7.94,13.76,47.59359,-54.27349
2021-01-02 13:04:01+00:00,275.0,6.66,264.0,9.34,13.76,47.59359,-54.27349
2021-01-02 13:14:01+00:00,264.0,6.9,259.0,8.13,13.68,47.59359,-54.27349
2021-01-02 13:24:01+00:00,273.0,6.57,283.0,8.09,13.68,47.59359,-54.27349
2021-01-02 13:34:01+00:00,259.0,6.57,255.0,7.75,13.68,47.59359,-54.27349
2021-01-02 13:44:01+00:00,259.0,6.24,252.0,7.67,13.68,47.59359,-54.27349
2021-01-02 13:54:01+00:00,266.0,5.78,260.0,9.06,13.68,47.59359,-54.27349
2021-01-02 14:04:01+00:00,262.0,4.88,258.0,6.09,13.68,47.59359,-54.27349
2021-01-02 14:14:01+00:00,255.0,4.7,258.0,6.54,13.6,47.59359,-54.27349
2021-01-02 14:24:01+00:00,268.0,5.03,274.0,5.75,13.6,47.59359,-54.27349
2021-01-02 14:34:01+00:00,264.0,6.97,265.0,7.68,13.6,47.59359,-54.27349
2021-01-02 14:44:01+00:00,247.0,5.69,247.0,6.71,13.6,47.59359,-54.27349
2021-01-02 14:54:01+00:00,241.0,4.88,238.0,6.24,13.6,47.59359,-54.27349
2021-01-02 15:04:01+00:00,257.0,4.97,252.0,6.62,13.6,47.59359,-54.27349
2021-01-02 15:14:01+00:00,268.0,5.26,262.0,6.32,14.24,47.59359,-54.27349
2021-01-02 15:24:01+00:00,266.0,4.88,268.0,6.32,14.24,47.59359,-54.27349
2021-01-02 15:34:01+00:00,266.0,3.78,258.0,4.89,14.24,47.59359,-54.27349
2021-01-02 15:44:01+00:00,273.0,3.64,285.0,5.31,14.24,47.59359,-54.27349
2021-01-02 15:54:01+00:00,273.0,3.79,268.0,4.23,14.24,47.59359,-54.27349
2021-01-02 16:04:01+00:00,288.0,3.48,291.0,4.4,14.24,47.59359,-54.27349
2021-01-02 16:14:01+00:00,268.0,4.2,270.0,4.61,13.76,47.59359,-54.27349
2021-01-02 16:24:01+00:00,239.0,4.75,246.0,6.76,13.76,47.59359,-54.27349
2021-01-02 16:34:01+00:00,257.0,4.49,247.0,5.45,13.76,47.59359,-54.27349
2021-01-02 16:44:01+00:00,275.0,4.34,270.0,5.35,13.76,47.59359,-54.27349
2021-01-02 16:54:01+00:00,255.0,5.13,266.0,6.07,13.76,47.59359,-54.27349
2021-01-02 17:04:01+00:00,277.0,3.86,291.0,5.11,13.76,47.59359,-54.27349
2021-01-02 18:14:01+00:00,262.0,5.9,266.0,7.47,13.53,47.59359,-54.27349
2021-01-02 18:24:01+00:00,250.0,4.08,251.0,4.75,13.53,47.59359,-54.27349
2021-01-02 18:34:01+00:00,283.0,5.2,277.0,6.27,13.53,47.59359,-54.27349
2021-01-02 18:44:01+00:00,241.0,3.73,233.0,4.57,13.53,47.59359,-54.27349
2021-01-02 18:54:01+00:00,252.0,4.35,254.0,5.07,13.53,47.59359,-54.27349
2021-01-02 19:04:01+00:00,249.0,5.8,253.0,7.84,13.53,47.59359,-54.27349
2021-01-02 19:14:01+00:00,254.0,4.42,259.0,5.52,12.97,47.59359,-54.27349
2021-01-02 19:24:01+00:00,277.0,3.81,270.0,4.95,12.97,47.59359,-54.27349
2021-01-02 19:34:01+00:00,252.0,3.3,256.0,3.93,12.97,47.59359,-54.27349
2021-01-02 19:44:01+00:00,226.0,0.94,244.0,1.83,12.97,47.59359,-54.27349
2021-01-02 19:54:01+00:00,299.0,3.49,300.0,5.09,12.97,47.59359,-54.27349
2021-01-02 20:04:01+00:00,290.0,3.45,283.0,4.05,12.97,47.59359,-54.27349
2021-01-02 20:14:01+00:00,309.0,4.26,306.0,4.91,12.65,47.59359,-54.27349
2021-01-02 20:24:01+00:00,230.0,2.03,231.0,2.78,12.65,47.59359,-54.27349
2021-01-02 20:34:01+00:00,270.0,3.84,266.0,4.59,12.65,47.59359,-54.27349
2021-01-02 20:44:01+00:00,242.0,3.66,230.0,4.46,12.65,47.59359,-54.27349
2021-01-02 20:54:01+00:00,231.0,2.51,242.0,3.34,12.65,47.59359,-54.27349
2021-01-02 21:04:01+00:00,251.0,2.88,252.0,3.69,12.65,47.59359,-54.27349
2021-01-02 21:14:01+00:00,281.0,3.86,275.0,4.61,12.57,47.59359,-54.27349
2021-01-02 21:24:01+00:00,316.0,1.58,322.0,2.06,12.57,47.59359,-54.27349
2021-01-02 21:34:01+00:00,31.0,0.49,49.0,0.86,12.57,47.59359,-54.27349
2021-01-02 21:44:01+00:00,304.0,1.53,305.0,1.97,12.57,47.59359,-54.27349
2021-01-02 21:54:01+00:00,263.0,0.68,266.0,1.0,12.57,47.59359,-54.27349
2021-01-02 22:04:01+00:00,285.0,0.88,278.0,1.2,12.57,47.59359,-54.27349
2021-01-02 22:14:01+00:00,63.0,1.61,58.0,1.79,12.57,47.59359,-54.27349
2021-01-02 22:24:01+00:00,58.0,1.67,56.0,2.31,12.57,47.59359,-54.27349
2021-01-02 22:34:01+00:00,39.0,1.7,40.0,2.37,12.57,47.59359,-54.27349
2021-01-02 22:44:01+00:00,68.0,2.81,73.0,3.27,12.57,47.59359,-54.27349
2021-01-02 22:54:01+00:00,90.0,2.04,95.0,2.51,12.57,47.59359,-54.27349
2021-01-02 23:04:01+00:00,67.0,1.21,72.0,1.87,12.57,47.59359,-54.27349
2021-01-02 23:14:01+00:00,102.0,2.1,133.0,3.81,12.57,47.59359,-54.27349
2021-01-02 23:24:01+00:00,108.0,3.44,112.0,4.91,12.57,47.59359,-54.27349
2021-01-02 23:34:01+00:00,109.0,2.71,126.0,3.57,12.57,47.59359,-54.27349
2021-01-02 23:44:01+00:00,82.0,1.96,58.0,3.56,12.57,47.59359,-54.27349
2021-01-02 23:54:01+00:00,86.0,2.79,71.0,3.61,12.57,47.59359,-54.27349
